KE5QKR Weather Reports


time (UTC)temp
F
wind
direction
speed
knots
gust
knots
rain 1hr
in
rain 24hr
in
rain mn
in
humidity
%
barometer
mb
20260510070921 66 343 0.0 0.0 0.00 0.00 0.00 99 1011.3
20260510070418 66 25 0.9 0.9 0.00 0.00 0.00 99 1011.5
20260510065913 66 19 0.9 0.9 0.00 0.00 0.00 99 1011.6
20260510065410 66 347 0.0 0.0 0.00 0.00 0.00 99 1011.5
20260510064906 66 346 0.0 0.0 0.00 0.00 0.00 99 1011.6
20260510064404 66 354 0.0 0.9 0.00 0.00 0.00 99 1011.6
20260510063900 66 355 0.0 0.9 0.00 0.00 0.00 99 1011.6
20260510063357 66 47 1.7 1.7 0.00 0.00 0.00 99 1011.4
20260510062854 66 25 1.7 1.7 0.00 0.00 0.00 99 1011.4
20260510062349 66 57 1.7 2.6 0.00 0.00 0.00 99 1011.1
20260510061845 66 32 0.9 0.9 0.00 0.00 0.00 99 1011.5
20260510061341 66 72 0.9 2.6 0.00 0.00 0.00 99 1011.4
20260510060837 66 354 0.9 2.6 0.00 0.00 0.00 99 1011.5
20260510060335 66 51 0.9 1.7 0.00 0.00 0.00 99 1011.7
20260510055832 66 8 0.9 1.7 0.00 0.00 0.00 99 1011.8
20260510055331 66 25 0.0 1.7 0.00 0.00 0.00 99 1011.6
20260510054830 66 25 0.0 1.7 0.00 0.00 0.00 99 1011.6
20260510054326 66 21 0.9 1.7 0.00 0.00 0.00 99 1011.5
20260510053821 66 5 0.0 0.9 0.00 0.00 0.00 99 1011.6
20260510053317 66 352 0.0 0.0 0.00 0.00 0.00 99 1011.8
20260510052814 66 338 0.0 0.0 0.00 0.00 0.00 99 1012.0
20260510052309 66 318 0.0 0.0 0.00 0.00 0.00 99 1012.0
20260510051805 66 318 0.0 0.0 0.00 0.00 0.00 99 1012.1
20260510051302 66 317 0.0 0.0 0.00 0.00 0.00 99 1011.9
20260510050759 66 330 0.9 0.9 0.00 0.00 0.00 99 1011.7
20260510050251 66 317 0.0 0.0 0.00 0.00 0.00 99 1011.8
20260510045748 66 298 0.9 0.9 0.00 0.01 0.01 99 1011.8
20260510045244 66 352 0.0 1.7 0.00 0.01 0.01 99 1011.5
20260510044741 66 15 0.9 0.9 0.00 0.01 0.01 99 1011.5
20260510044239 66 7 0.0 0.9 0.00 0.01 0.01 99 1011.8
20260510043734 66 347 0.0 0.0 0.00 0.01 0.01 99 1011.4
20260510043231 66 347 0.0 0.0 0.00 0.01 0.01 99 1011.3
20260510042728 66 337 0.9 2.6 0.00 0.01 0.01 99 1011.5
20260510042223 66 339 0.0 1.7 0.00 0.01 0.01 99 1011.1
20260510041721 66 11 0.0 0.9 0.00 0.01 0.01 99 1011.0
20260510041218 66 354 0.0 0.0 0.00 0.01 0.01 99 1011.3
20260510040709 67 13 0.0 1.7 0.00 0.01 0.01 99 1011.3
20260510040206 67 345 0.0 0.9 0.00 0.01 0.01 99 1011.9
20260510035702 67 15 0.9 1.7 0.00 0.01 0.01 99 1011.8
20260510035158 67 351 0.0 0.0 0.00 0.01 0.01 99 1012.1
20260510034654 67 337 0.0 0.9 0.00 0.01 0.01 99 1012.3
20260510034151 67 338 0.0 2.6 0.00 0.01 0.01 99 1012.2
20260510033647 67 305 0.9 1.7 0.00 0.01 0.01 99 1012.5
20260510033145 67 306 0.9 0.9 0.00 0.01 0.01 99 1012.5
20260510032641 67 62 0.9 2.6 0.00 0.01 0.01 99 1012.1
20260510032137 67 350 0.0 1.7 0.00 0.01 0.01 99 1012.2
20260510031631 67 48 0.9 0.9 0.00 0.01 0.01 99 1012.3
20260510031129 67 22 0.0 1.7 0.00 0.01 0.01 99 1012.4
20260510030622 67 354 0.0 0.0 0.00 0.01 0.01 99 1012.4
20260510030121 67 343 0.0 0.0 0.00 0.01 0.01 99 1012.1
20260510025617 67 326 0.0 0.0 0.00 0.01 0.01 99 1012.2
20260510025115 67 326 0.0 0.0 0.00 0.01 0.01 99 1012.2
20260510024611 67 351 0.0 0.9 0.00 0.01 0.01 99 1012.0
20260510024108 67 338 0.0 0.9 0.00 0.01 0.01 99 1012.4
20260510023604 67 343 0.0 0.9 0.00 0.01 0.01 99 1012.2
20260510023102 67 316 0.0 0.9 0.00 0.01 0.01 99 1012.1
20260510022601 67 312 0.0 0.9 0.00 0.01 0.01 99 1011.9
20260510022056 67 337 0.0 1.7 0.00 0.01 0.01 99 1011.4
20260510021553 67 338 2.6 4.3 0.00 0.01 0.01 99 1011.4
20260510021050 67 356 0.9 4.3 0.00 0.01 0.01 99 1011.2
20260510020549 67 328 2.6 2.6 0.00 0.01 0.01 99 1011.2
20260510020046 67 307 2.6 7.0 0.00 0.01 0.01 99 1011.3
20260510015542 67 3 5.2 7.0 0.00 0.01 0.01 99 1010.7
20260510015038 67 317 0.0 0.0 0.00 0.01 0.01 99 1010.7
20260510014534 67 321 0.0 0.0 0.00 0.01 0.01 99 1010.7
20260510014031 67 344 0.0 0.0 0.00 0.01 0.01 99 1010.8
20260510013526 67 311 0.0 0.9 0.00 0.01 0.01 99 1011.0
20260510013022 66 343 0.0 0.9 0.00 0.01 0.01 99 1010.8
20260510012516 66 307 0.0 2.6 0.00 0.01 0.01 99 1011.0
20260510012012 66 317 0.0 0.9 0.00 0.01 0.01 99 1010.2
20260510011507 66 11 0.9 0.9 0.00 0.01 0.01 99 1010.0
20260510011003 66 328 0.0 0.0 0.00 0.01 0.01 99 1010.7
20260510010501 66 2 0.0 0.9 0.00 0.01 0.01 99 1010.4
20260510005957 66 350 0.0 0.0 0.00 0.01 0.01 99 1010.7
20260510005453 66 338 0.0 0.0 0.00 0.01 0.01 99 1011.1
20260510004950 66 344 0.0 0.0 0.00 0.01 0.01 99 1011.1
20260510004447 66 314 0.0 0.0 0.00 0.01 0.01 99 1010.9
20260510003946 66 54 0.9 1.7 0.00 0.01 0.01 99 1010.5
20260510003442 66 342 0.9 0.9 0.00 0.01 0.01 99 1010.8
20260510002943 66 325 0.9 1.7 0.00 0.01 0.01 99 1010.8
20260510002439 66 346 0.0 0.9 0.00 0.01 0.01 99 1010.7
20260510001935 66 335 0.0 0.0 0.00 0.01 0.01 99 1010.7
20260510001433 66 340 0.0 0.9 0.07 0.01 0.01 99 1010.7
20260510000930 66 344 0.0 0.0 0.00 0.00 0.00 99 1010.8
20260510000426 67 342 0.0 0.0 0.00 0.00 0.00 99 1011.0
20260509235923 67 321 0.0 0.0 0.00 0.00 0.00 99 1011.1
20260509235420 67 332 0.0 0.0 0.00 0.00 0.00 99 1011.0
20260509234916 67 332 0.0 0.0 0.00 0.00 0.00 99 1011.2
20260509234413 67 330 0.0 0.0 0.00 0.00 0.00 99 1011.3
20260509233911 67 334 0.0 0.0 0.00 0.00 0.00 99 1011.3
20260509233408 67 344 0.0 0.0 0.00 0.00 0.00 99 1011.2
20260509232904 67 335 0.0 0.0 0.00 0.00 0.00 99 1011.8
20260509232402 67 350 0.0 0.0 0.00 0.00 0.00 99 1011.6
20260509231857 67 295 0.9 0.9 0.00 0.00 0.00 99 1011.4
20260509231355 67 334 0.0 0.0 0.00 0.00 0.00 99 1010.6
20260509230853 67 337 0.0 0.0 0.00 0.00 0.00 99 1010.5
20260509230349 67 335 0.0 0.0 0.00 0.00 0.00 99 1010.3
20260509225845 67 350 0.9 0.9 0.00 0.00 0.00 99 1010.1
20260509225342 67 345 1.7 2.6 0.00 0.00 0.00 99 1010.3
20260509224837 67 42 1.7 1.7 0.00 0.00 0.00 99 1010.0
20260509224333 67 353 0.0 0.9 0.00 0.00 0.00 99 1010.2
20260509223831 67 334 0.0 0.0 0.00 0.00 0.00 99 1010.7
20260509223327 67 328 0.0 0.0 0.00 0.00 0.00 99 1010.7
20260509222825 67 308 0.0 0.9 0.00 0.00 0.00 99 1011.0
20260509222320 67 302 0.0 0.9 0.00 0.00 0.00 99 1010.6
20260509221816 67 309 0.0 0.0 0.00 0.00 0.00 99 1010.6
20260509221314 67 6 0.0 0.9 0.00 0.00 0.00 99 1010.8
20260509220814 67 333 0.0 0.0 0.00 0.00 0.00 99 1011.0
20260509220310 68 314 0.0 0.9 0.00 0.00 0.00 99 1010.5
20260509215806 68 335 0.0 0.0 0.00 0.00 0.00 99 1010.4
20260509215305 68 320 0.0 0.0 0.00 0.00 0.00 99 1010.4
20260509214759 68 311 0.0 0.9 0.00 0.00 0.00 99 1009.7
20260509214257 68 324 0.0 0.0 0.00 0.00 0.00 99 1009.5
20260509213753 68 324 0.0 0.0 0.00 0.00 0.00 99 1009.4
20260509213249 68 332 0.0 0.0 0.00 0.00 0.00 99 1009.2
20260509212747 68 335 0.0 0.0 0.00 0.00 0.00 99 1009.7
20260509212244 68 326 0.0 0.0 0.00 0.00 0.00 99 1009.5
20260509211739 68 316 0.0 0.0 0.00 0.00 0.00 99 1009.6
20260509211236 68 317 0.0 0.0 0.00 0.00 0.00 99 1009.6
20260509210732 68 311 0.0 0.9 0.00 0.00 0.00 99 1009.5
20260509210231 68 331 0.0 1.7 0.00 0.00 0.00 99 1009.1
20260509205730 68 340 0.0 0.9 0.00 0.00 0.00 99 1008.9
20260509205230 68 336 0.0 0.0 0.00 0.00 0.00 99 1009.1
20260509204726 68 325 0.0 0.0 0.00 0.00 0.00 99 1009.0
20260509204223 68 338 0.0 0.0 0.00 0.00 0.00 99 1009.4
20260509203718 68 346 0.0 0.0 0.00 0.00 0.00 99 1009.9
20260509203217 68 5 0.0 1.7 0.00 0.00 0.00 99 1010.6
20260509202712 68 334 0.0 0.9 0.00 0.00 0.00 99 1010.9
20260509202207 67 2 0.0 0.0 0.00 0.00 0.00 99 1010.9
20260509201703 67 315 0.0 0.9 0.00 0.00 0.00 99 1010.4
20260509201200 67 311 0.0 0.9 0.00 0.00 0.00 99 1010.2
20260509200656 67 326 0.0 0.9 0.00 0.00 0.00 99 1010.1
20260509200151 67 325 0.0 0.0 0.00 0.00 0.00 99 1010.2
20260509195648 67 329 0.0 0.0 0.00 0.00 0.00 99 1010.4
20260509195143 67 319 0.0 0.0 0.00 0.00 0.00 99 1010.7
20260509194642 67 328 0.0 0.0 0.00 0.00 0.00 99 1010.8
20260509194140 67 324 0.0 0.0 0.00 0.00 0.00 99 1010.8
20260509193636 67 326 0.0 0.0 0.00 0.00 0.00 99 1011.0
20260509193131 67 331 0.0 0.0 0.00 0.00 0.00 99 1010.6
20260509192628 67 323 0.0 0.9 0.00 0.00 0.00 99 1010.9
20260509192124 67 318 0.0 0.9 0.00 0.00 0.00 99 1010.9
20260509191623 67 327 0.0 0.0 0.00 0.00 0.00 99 1010.5
20260509191120 67 327 0.0 0.0 0.00 0.00 0.00 99 1010.4
20260509190617 67 324 0.0 0.0 0.00 0.00 0.00 99 1010.7
20260509190114 66 311 0.0 0.9 0.00 0.00 0.00 99 1010.5
20260509185612 66 347 0.0 0.0 0.00 0.00 0.00 99 1010.5
20260509185108 66 318 0.0 1.7 0.00 0.00 0.00 99 1010.8
20260509184606 66 337 0.0 0.0 0.00 0.00 0.00 99 1010.4
20260509184102 66 325 0.0 0.9 0.00 0.00 0.00 99 1011.2
20260509183558 66 292 0.9 1.7 0.00 0.00 0.00 99 1010.3
20260509183054 66 60 1.7 1.7 0.00 0.00 0.00 99 1010.0
20260509182550 65 301 0.0 4.3 0.00 0.00 0.00 99 1010.5
20260509182047 65 313 0.0 0.9 0.00 0.00 0.00 99 1010.2
20260509181546 65 49 0.9 1.7 0.00 0.00 0.00 99 1010.5
20260509181042 65 322 0.0 0.0 0.00 0.00 0.00 99 1011.0
20260509180538 65 348 0.0 0.9 0.00 0.00 0.00 99 1011.2
20260509180036 65 341 0.0 0.0 0.00 0.00 0.00 99 1011.1
20260509175531 65 324 0.0 0.9 0.00 0.00 0.00 99 1011.4
20260509175028 65 324 0.0 0.0 0.00 0.00 0.00 99 1011.1
20260509174525 65 324 0.0 0.0 0.00 0.00 0.00 99 1011.0
20260509174020 65 324 0.0 0.0 0.00 0.00 0.00 99 1011.2
20260509173514 65 324 0.0 0.0 0.00 0.00 0.00 99 1011.5
20260509173011 65 324 0.0 0.9 0.00 0.00 0.00 99 1011.3
20260509172508 65 353 0.0 0.9 0.00 0.00 0.00 99 1011.1
20260509172003 65 312 0.0 1.7 0.00 0.00 0.00 99 1011.7
20260509171500 65 315 0.0 0.0 0.00 0.00 0.00 99 1011.2
20260509170956 65 315 0.9 1.7 0.00 0.00 0.00 99 1011.5
20260509170452 65 317 0.0 0.0 0.00 0.00 0.00 99 1011.2
20260509165948 64 323 0.0 1.7 0.00 0.00 0.00 99 1011.1
20260509165447 64 108 0.9 0.9 0.00 0.00 0.00 99 1010.7
20260509164943 64 93 0.9 2.6 0.00 0.00 0.00 99 1011.0
20260509164439 64 59 0.9 4.3 0.00 0.00 0.00 99 1010.7
20260509163935 64 76 4.3 5.2 0.00 0.00 0.00 99 1011.3
20260509163433 64 59 0.9 1.7 0.00 0.00 0.00 99 1011.8
20260509162931 64 1 0.0 0.0 0.00 0.00 0.00 99 1012.2
20260509162431 64 322 0.0 0.9 0.00 0.00 0.00 99 1012.5
20260509161926 64 28 0.0 0.0 0.00 0.00 0.00 99 1012.3
20260509161423 64 41 0.0 0.9 0.00 0.00 0.00 99 1012.0
20260509160918 64 33 0.0 0.9 0.00 0.00 0.00 99 1012.2
20260509160414 64 26 0.0 1.7 0.00 0.00 0.00 99 1012.1
20260509155909 64 47 0.0 0.9 0.00 0.00 0.00 99 1012.2
20260509155406 64 46 0.0 0.9 0.00 0.00 0.00 99 1012.2
20260509154903 64 42 0.0 0.9 0.00 0.00 0.00 99 1012.2
20260509154359 64 44 0.0 0.9 0.00 0.00 0.00 99 1012.3